Location: La Pernelle
(49.6188°N, 1.2999°W)
Time: 11:15:59
(UTC+00:00)

Cosmos 1954 Rocket - Pass Details

Date: 26 October 2021
Orbit: 751 x 782 km, 74.0° (Epoch: 26 November)

Event Time Altitude Azimuth Distance (km) Brightness Sun altitude
Rises 20:30:52 0° 329° (NNW) 3,242 7.9 -35.3°
Reaches altitude 10° 20:33:28 10° 319° (NW) 2,317 7.1 -35.7°
Enters shadow 20:37:02 29° 280° (W) 1,396 5.7 -36.2°
